When you browse on this site, cookies collect data to enhance your experience and personalize the content and advertising you see.
Visit our Privacy Policy to learn more. By continuing to use the site, you agree to this use of cookies and data.
  • In Hungary
  • List of Countries
  • For 7 days
  • Water Temperature
  • Satellite Maps
  • Weather Map
  • News
  • Weather Widgets
  • user-avatar
    Login

    Hourly Weather Lusaka

    Today, 24 April, Wednesday

    Time Temperature Precipitation Wind Pressure Humidity
    00:00 +18°C° 0 mm 2 mps 658 mmHg 80%
    01:00 +18°C° 0 mm 2 mps 658 mmHg 80%
    02:00 +18°C° 0 mm 1 mps 658 mmHg 81%
    03:00 +18°C° 0 mm 1 mps 658 mmHg 81%
    04:00 +18°C° 0 mm 1 mps 658 mmHg 80%
    05:00 +16°C° 0 mm 1 mps 658 mmHg 80%
    06:00 +17°C° 0 mm 2 mps 658 mmHg 75%
    07:00 +19°C° 0 mm 2 mps 659 mmHg 70%
    08:00 +20°C° 0 mm 2 mps 659 mmHg 65%
    09:00 +23°C° 0 mm 2 mps 660 mmHg 60%
    10:00 +25°C° 0 mm 2 mps 660 mmHg 55%
    11:00 +27°C° 0 mm 2 mps 660 mmHg 49%
    12:00 +28°C° 0 mm 2 mps 660 mmHg 47%
    13:00 +29°C° 0 mm 2 mps 660 mmHg 44%
    14:00 +29°C° 0 mm 2 mps 659 mmHg 43%
    15:00 +28°C° 0 mm 2 mps 659 mmHg 46%
    16:00 +27°C° 0 mm 2 mps 658 mmHg 50%
    17:00 +27°C° 0 mm 2 mps 658 mmHg 53%
    18:00 +25°C° 0 mm 2 mps 658 mmHg 59%
    19:00 +23°C° 0 mm 2 mps 658 mmHg 64%
    20:00 +21°C° 0 mm 1 mps 658 mmHg 70%
    21:00 +21°C° 0 mm 1 mps 658 mmHg 71%
    22:00 +20°C° 0 mm 1 mps 658 mmHg 73%
    23:00 +20°C° 0 mm 1 mps 658 mmHg 74%

    Tomorrow, 25 April, Thursday

    Time Temperature Precipitation Wind Pressure Humidity
    00:00 +19°C° 0 mm 1 mps 658 mmHg 75%
    01:00 +19°C° 0 mm 1 mps 658 mmHg 76%
    02:00 +19°C° 0 mm 1 mps 657 mmHg 77%
    03:00 +19°C° 0 mm 1 mps 657 mmHg 78%
    04:00 +18°C° 0 mm 1 mps 657 mmHg 79%
    05:00 +18°C° 0 mm 1 mps 657 mmHg 80%
    06:00 +19°C° 0 mm 1 mps 658 mmHg 76%
    07:00 +20°C° 0 mm 1 mps 659 mmHg 72%
    08:00 +22°C° 0 mm 1 mps 659 mmHg 68%
    09:00 +24°C° 0 mm 1 mps 660 mmHg 62%
    10:00 +26°C° 0 mm 2 mps 660 mmHg 55%
    11:00 +28°C° 0 mm 2 mps 661 mmHg 48%
    12:00 +29°C° 0 mm 2 mps 660 mmHg 45%
    13:00 +30°C° 0 mm 2 mps 660 mmHg 42%
    14:00 +31°C° 0 mm 2 mps 659 mmHg 39%
    15:00 +29°C° 0 mm 2 mps 659 mmHg 43%
    16:00 +28°C° 0 mm 2 mps 658 mmHg 46%
    17:00 +27°C° 0 mm 2 mps 657 mmHg 50%
    18:00 +26°C° 0 mm 2 mps 657 mmHg 56%
    19:00 +24°C° 0 mm 2 mps 657 mmHg 62%
    20:00 +22°C° 0 mm 1 mps 657 mmHg 67%
    21:00 +22°C° 0 mm 1 mps 657 mmHg 69%
    22:00 +21°C° 0 mm 1 mps 657 mmHg 71%
    23:00 +18°C° 0 mm 0 mps 657 mmHg 73%

    Day after tomorrow, 26 April, Friday

    Time Temperature Precipitation Wind Pressure Humidity
    00:00 +18°C° 0 mm 0 mps 657 mmHg 74%
    01:00 +18°C° 0 mm 0 mps 656 mmHg 75%
    02:00 +17°C° 0 mm 0 mps 656 mmHg 76%
    03:00 +17°C° 0 mm 0 mps 656 mmHg 77%
    04:00 +17°C° 0 mm 0 mps 656 mmHg 78%
    05:00 +17°C° 0 mm 0 mps 656 mmHg 79%
    06:00 +20°C° 0 mm 1 mps 657 mmHg 75%
    07:00 +21°C° 0 mm 1 mps 658 mmHg 70%
    08:00 +23°C° 0 mm 1 mps 658 mmHg 66%
    09:00 +25°C° 0 mm 1 mps 659 mmHg 59%
    10:00 +27°C° 0 mm 2 mps 660 mmHg 52%
    11:00 +29°C° 0 mm 2 mps 660 mmHg 45%
    12:00 +29°C° 0 mm 2 mps 660 mmHg 42%
    13:00 +30°C° 0 mm 2 mps 659 mmHg 39%
    14:00 +31°C° 0 mm 3 mps 658 mmHg 36%
    15:00 +30°C° 0 mm 2 mps 658 mmHg 38%
    16:00 +29°C° 0 mm 2 mps 657 mmHg 40%
    17:00 +28°C° 0 mm 2 mps 657 mmHg 42%
    18:00 +26°C° 0 mm 2 mps 656 mmHg 47%
    19:00 +24°C° 0 mm 1 mps 656 mmHg 53%
    20:00 +22°C° 0 mm 1 mps 656 mmHg 58%
    21:00 +21°C° 0 mm 1 mps 656 mmHg 59%
    22:00 +19°C° 0 mm 0 mps 657 mmHg 61%
    23:00 +18°C° 0 mm 0 mps 657 mmHg 63%

    27 April, Saturday

    Time Temperature Precipitation Wind Pressure Humidity
    00:00 +18°C° 0 mm 0 mps 656 mmHg 65%
    01:00 +20°C° 0 mm 1 mps 656 mmHg 66%
    02:00 +20°C° 0 mm 1 mps 656 mmHg 67%
    03:00 +19°C° 0 mm 1 mps 656 mmHg 70%
    04:00 +19°C° 0 mm 1 mps 656 mmHg 72%
    05:00 +19°C° 0 mm 1 mps 656 mmHg 74%
    06:00 +19°C° 0 mm 2 mps 657 mmHg 70%
    07:00 +21°C° 0 mm 2 mps 658 mmHg 67%
    08:00 +22°C° 0 mm 3 mps 659 mmHg 64%
    09:00 +25°C° 0 mm 3 mps 659 mmHg 58%
    10:00 +27°C° 0 mm 3 mps 660 mmHg 53%
    11:00 +28°C° 0 mm 3 mps 660 mmHg 48%
    12:00 +29°C° 0 mm 3 mps 660 mmHg 46%
    13:00 +29°C° 0 mm 2 mps 659 mmHg 44%
    14:00 +29°C° 0 mm 2 mps 658 mmHg 42%
    15:00 +29°C° 0 mm 2 mps 658 mmHg 44%
    16:00 +28°C° 0 mm 2 mps 658 mmHg 47%
    17:00 +27°C° 0 mm 2 mps 657 mmHg 49%
    18:00 +26°C° 0 mm 2 mps 657 mmHg 54%
    19:00 +24°C° 0 mm 2 mps 657 mmHg 59%
    20:00 +21°C° 0 mm 2 mps 658 mmHg 63%
    21:00 +22°C° 0 mm 1 mps 658 mmHg 65%
    22:00 +21°C° 0 mm 1 mps 658 mmHg 68%
    23:00 +21°C° 0 mm 1 mps 658 mmHg 70%

    28 April, Sunday

    Time Temperature Precipitation Wind Pressure Humidity
    00:00 +20°C° 0 mm 1 mps 658 mmHg 72%
    01:00 +20°C° 0 mm 1 mps 658 mmHg 75%
    02:00 +20°C° 0 mm 1 mps 657 mmHg 77%
    03:00 +18°C° 0 mm 2 mps 657 mmHg 78%
    04:00 +18°C° 0 mm 2 mps 658 mmHg 79%
    05:00 +18°C° 0 mm 2 mps 658 mmHg 79%
    06:00 +19°C° 0 mm 3 mps 659 mmHg 77%
    07:00 +20°C° 0 mm 3 mps 660 mmHg 74%
    08:00 +21°C° 0 mm 4 mps 660 mmHg 71%
    09:00 +22°C° 0 mm 4 mps 661 mmHg 64%
    10:00 +25°C° 0 mm 4 mps 661 mmHg 58%
    11:00 +27°C° 0 mm 4 mps 661 mmHg 51%
    12:00 +28°C° 0 mm 4 mps 661 mmHg 48%
    13:00 +28°C° 0 mm 4 mps 660 mmHg 46%
    14:00 +29°C° 0 mm 4 mps 659 mmHg 43%
    15:00 +28°C° 0 mm 3 mps 659 mmHg 46%
    16:00 +27°C° 0 mm 3 mps 659 mmHg 49%
    17:00 +26°C° 0 mm 3 mps 658 mmHg 52%
    18:00 +25°C° 0 mm 2 mps 658 mmHg 58%
    19:00 +23°C° 0 mm 2 mps 658 mmHg 63%
    20:00 +21°C° 0 mm 1 mps 659 mmHg 69%
    21:00 +21°C° 0 mm 1 mps 659 mmHg 71%
    22:00 +19°C° 0 mm 2 mps 659 mmHg 74%
    23:00 +19°C° 0 mm 2 mps 659 mmHg 77%

    29 April, Monday

    Time Temperature Precipitation Wind Pressure Humidity
    00:00 +18°C° 0 mm 2 mps 659 mmHg 78%
    01:00 +18°C° 0 mm 2 mps 658 mmHg 78%
    02:00 +18°C° 0 mm 2 mps 658 mmHg 79%
    03:00 +18°C° 0 mm 2 mps 659 mmHg 81%
    04:00 +17°C° 0 mm 3 mps 659 mmHg 83%
    05:00 +17°C° 0 mm 3 mps 659 mmHg 85%
    06:00 +17°C° 0 mm 3 mps 660 mmHg 78%
    07:00 +18°C° 0 mm 4 mps 660 mmHg 70%
    08:00 +19°C° 0 mm 5 mps 661 mmHg 62%
    09:00 +20°C° 0 mm 4 mps 661 mmHg 57%
    10:00 +22°C° 0 mm 4 mps 662 mmHg 51%
    11:00 +25°C° 0 mm 4 mps 662 mmHg 46%
    12:00 +26°C° 0 mm 4 mps 661 mmHg 43%
    13:00 +26°C° 0 mm 3 mps 661 mmHg 40%
    14:00 +27°C° 0 mm 3 mps 660 mmHg 38%
    15:00 +26°C° 0 mm 3 mps 660 mmHg 40%
    16:00 +26°C° 0 mm 3 mps 659 mmHg 42%
    17:00 +25°C° 0 mm 2 mps 659 mmHg 44%
    18:00 +23°C° 0 mm 2 mps 659 mmHg 48%
    19:00 +20°C° 0 mm 2 mps 659 mmHg 52%
    20:00 +18°C° 0 mm 2 mps 659 mmHg 56%
    21:00 +18°C° 0 mm 1 mps 659 mmHg 59%
    22:00 +18°C° 0 mm 1 mps 659 mmHg 63%
    23:00 +16°C° 0 mm 1 mps 659 mmHg 66%
    Show more